#timestamp,LO_Frequency,Hit,StdDev 
1639670415.6,286047001.9,N
1639670435.5,286047000.1,N
1639670455.3,286047000.9,N
1639670475.1,286047000.5,N
1639670495.9,286047002.5,N
1639670515.7,286047002.1,N
1639670535.6,286047000.5,N
1639670555.4,286046998.7,N
1639670575.2,286046998.9,N
1639670595.1,286046999.5,N
1639670596.0,286046999.5,N
1639670615.8,286046995.4,Y
1639670635.7,286046994.9,P
1639670655.5,286046996.5,N
1639670675.3,286047000.7,N
1639670695.2,286046998.3,N
1639670715.0,286046999.5,N
1639670715.9,286046999.5,N
1639670735.8,286046996.6,N
1639670755.6,286046997.7,N
1639670775.4,286046998.8,N
1639670795.3,286047000.0,N
1639670815.1,286046999.7,N
1639670835.8,286047002.0,N
1639670855.7,286047001.5,N
1639670875.5,286047000.3,N
1639670895.4,286046998.2,N
1639670915.2,286047000.7,N
1639670935.0,286047000.1,N
1639670935.9,286047000.1,N
1639670955.8,286047002.4,N
1639670975.6,286047002.2,N
1639670995.5,286047001.8,N
1639671015.3,286047001.7,N
1639671035.1,286047002.1,N
1639671055.9,286047002.1,N
1639671075.7,286046998.5,N
1639671095.5,286047000.6,N
1639671115.4,286046996.5,N
1639671135.2,286046999.0,N
1639671155.0,286046999.4,N
1639671156.0,286046999.4,N
1639671175.8,286046999.1,N
1639671195.6,286047000.9,N
1639671215.5,286047001.0,N
1639671235.3,286046999.9,N
1639671255.1,286046999.8,N
1639671275.9,286047000.2,N
1639671295.7,286047002.7,N
1639671315.6,286047001.4,N
1639671335.4,286047002.7,N
1639671355.2,286047002.6,N
1639671375.1,286047002.3,N
1639671376.0,286047002.3,N
1639671395.8,286047004.0,N
1639671415.6,286047001.7,N
1639671435.5,286047002.6,N
1639671455.3,286047002.4,N
1639671475.2,286047001.4,N
1639671495.9,286047004.1,N
1639671515.7,286047002.2,N
1639671535.6,286047001.4,N
1639671555.4,286047004.4,N
1639671575.2,286047004.4,N
1639671595.1,286047004.0,N
1639671596.0,286047004.0,N
1639671615.8,286047004.3,N
1639671635.7,286047004.0,N
1639671655.5,286047003.9,N
1639671675.3,286047004.2,N
1639671695.2,286047003.0,N
1639671715.0,286047005.6,Y
1639671715.9,286047005.6,P
1639671735.8,286047001.8,N
1639671755.6,286047002.8,N
1639671775.4,286047002.8,N
1639671795.3,286047000.6,N
1639671815.1,286046999.8,N
1639671835.8,286047002.6,N
1639671855.7,286047000.5,N
1639671875.5,286046999.8,N
1639671895.4,286047000.9,N
1639671915.2,286047002.4,N
1639671935.0,286047002.3,N
1639671955.8,286047002.1,N
1639671975.7,286047002.3,N
1639671995.5,286047000.1,N
1639672015.4,286047002.7,N
1639672035.2,286047002.3,N
1639672055.0,286047000.1,N
1639672055.9,286047000.1,N
1639672075.8,286047002.8,N
1639672095.6,286047002.5,N
1639672115.4,286047002.2,N
1639672135.3,286047000.1,N
1639672155.1,286047000.3,N
1639672175.9,286047000.3,N
1639672195.7,286047000.6,N
1639672215.5,286047000.6,N
1639672235.4,286047000.1,N
1639672255.2,286047002.4,N
1639672275.1,286047002.7,N
1639672276.0,286047002.7,N
1639672295.8,286047002.8,N
1639672315.6,286047001.5,N
1639672335.5,286047002.5,N
1639672355.3,286047001.9,N
1639672375.1,286047001.9,N
1639672395.9,286047002.2,N
1639672415.7,286047002.4,N
1639672435.6,286047001.8,N
1639672455.4,286047002.1,N
1639672475.2,286047001.9,N
1639672495.1,286047001.7,N
1639672496.0,286047001.7,N
1639672515.8,286047001.7,N
1639672535.7,286047003.9,Y
1639672555.5,286047000.3,P
1639672575.3,286047000.2,N
1639672595.2,286047000.4,N
1639672615.9,286047000.2,N
1639672635.7,286046999.9,N
1639672655.6,286046998.9,N
1639672675.4,286046999.3,N
1639672695.2,286046998.6,N
1639672715.1,286047001.0,N
1639672716.0,286047001.0,N
1639672735.8,286046999.4,N
1639672755.7,286046998.2,N
1639672775.5,286046998.4,N
1639672795.3,286047000.8,N
1639672815.2,286046999.2,N
1639672835.0,286047002.8,N
1639672835.9,286047002.8,N
1639672855.8,286047000.0,N
1639672875.6,286047001.0,N
1639672895.4,286047000.9,N
1639672915.3,286047001.0,N
1639672935.1,286046998.5,N
1639672955.8,286046998.8,N
1639672975.7,286047001.0,N
1639672995.5,286047000.0,N
1639673015.4,286047002.8,N
1639673035.2,286046999.8,N
1639673055.0,286047002.5,N
1639673055.9,286047002.5,N
1639673075.8,286047001.6,N
1639673095.6,286047002.3,N
1639673115.4,286047002.2,N
1639673135.3,286047001.7,N
1639673155.1,286047001.9,N
1639673175.9,286047000.4,N
1639673195.7,286047001.1,N
1639673215.5,286047001.0,N
1639673235.4,286047001.1,N
1639673255.2,286047001.2,N
1639673275.0,286046999.6,N
1639673275.9,286046999.6,N
1639673295.8,286046998.9,N
1639673315.6,286046998.3,N
1639673335.5,286046999.4,N
1639673355.3,286047000.4,N
1639673375.1,286046998.1,N
1639673395.9,286046998.3,N
1639673415.7,286047001.0,N
1639673435.6,286047002.0,N
1639673455.4,286047000.4,N
1639673475.2,286047000.9,N
1639673495.1,286047000.8,N
1639673496.0,286047000.8,N
1639673515.8,286047001.1,N
1639673535.6,286046998.6,N
1639673555.5,286047001.2,N
1639673575.3,286047001.0,N
1639673595.2,286046999.8,N
1639673615.9,286047002.0,N
1639673635.7,286047000.2,N
1639673655.6,286047000.0,N
1639673675.4,286047001.0,N
1639673695.3,286047000.6,N
1639673715.1,286047002.7,N
1639673716.0,286047002.7,N
1639673735.8,286046998.4,N
1639673755.7,286047000.9,N
1639673775.5,286047000.5,N
1639673795.3,286047002.5,N
1639673815.2,286047001.3,N
1639673835.0,286047001.6,N
1639673835.9,286047001.6,N
1639673855.8,286047001.7,N
1639673875.6,286046999.8,N
1639673895.4,286047000.2,N
1639673915.3,286047002.5,N
1639673935.1,286047001.3,N
1639673955.9,286047002.2,N
1639673975.7,286047000.4,N
1639673995.5,286047000.2,N
